Regional Weather Roundup
Issued by NWS Jackson, KY

Home | Current Version | Previous Version | Graphics & Text | Print | Product List | Glossary On
Versions: 1 2 3 4 5 6 7 8 9 10 11 12 13 14 15 16 17 18 19 20 21 22 23 24 25 26 27
000
ASUS43 KJKL 181210
RWRJKL

EAST KENTUCKY HOURLY WEATHER ROUNDUP
NATIONAL WEATHER SERVICE JACKSON KY
700 AM EST SAT FEB 18 2017

NOTE: "FAIR" INDICATES FEW OR NO CLOUDS BELOW 12,000 FEET WITH
NO SIGNIFICANT WEATHER AND/OR OBSTRUCTIONS TO VISIBILITY.

* THESE REPORTS ARE NOT UNDER NWS QUALITY CONTROL AND MAY NOT
  REPORT WEATHER SUCH AS PRECIPITATION AND FOG.

KYZ079-080-083-085-087-088-110-112-115-119-120-181300
...EASTERN KENTUCKY...

CITY           SKY/WX    TMP DP  RH WIND       PRES   REMARKS
JACKSON        CLOUDY    50  31  48 SW5       29.92F
6HR MIN TEMP:  47; 6HR MAX TEMP:  51;

LONDON         PTCLDY    44  33  65 SW3       29.93S
6HR MIN TEMP:  38; 6HR MAX TEMP:  44;

SOMERSET*      CLOUDY    45  32  61 S3        29.94S
MONTICELLO*    CLOUDY    46  38  73 NW9       29.95R
6HR MIN TEMP:  33; 6HR MAX TEMP:  52;

WILLIAMSBURG*  MOSUNNY   41  36  81 S3        29.94R
MIDDLESBORO*   CLOUDY    36  34  92 CALM      29.98R
6HR MIN TEMP:  32; 6HR MAX TEMP:  37;

HARLAN APT*    CLOUDY    34  32  93 CALM      29.95F
PIKE CO APT*     N/A     49  31  49 SE6       29.92F
BIG SANDY APT* MOSUNNY   50  31  49 S3        29.92F
6HR MIN TEMP:  49; 6HR MAX TEMP:  54;

MOREHEAD APT*  MOSUNNY   48  30  49 CALM      29.91S
ASHLAND*       PTCLDY    18 N/A N/A CALM      29.89S
$$

KYZ035-036-041-042-044-050-067-078-099-181300
...CENTRAL KENTUCKY...

CITY           SKY/WX    TMP DP  RH WIND       PRES   REMARKS
MT STERLING*   PTCLDY    46  32  57 SW6       29.91R
FLEMING/MASON* CLOUDY    44  32  61 S10       29.90R
DANVILLE*      CLOUDY    46  34  61 SW5       29.91S
LEXINGTON      CLOUDY    46  32  58 S7        29.88S
6HR MIN TEMP:  44; 6HR MAX TEMP:  49;

FRANKFORT      CLOUDY    44  32  62 CALM      29.87S
6HR MIN TEMP:  40; 6HR MAX TEMP:  50;

LOUISVILLE     CLOUDY    49  32  52 SE6       29.87R
6HR MIN TEMP:  46; 6HR MAX TEMP:  52;

LEBANON*         N/A     52  36  54 S7        29.89R
GLASGOW*       RAIN      51  37  60 SW6       29.93R
BOWLING GREEN  CLOUDY    53  39  59 S9        29.92R
6HR MIN TEMP:  42; 6HR MAX TEMP:  53; 6HR PCP: TRACE;

$$

KYZ091>093-OHZ055-061-077-WVZ005-015-034-035-042-181300
...SOUTHERN OHIO/WEST VIRGINIA...

CITY           SKY/WX    TMP DP  RH WIND       PRES   REMARKS
COVINGTON      PTCLDY    45  31  58 S12       29.84R
COLUMBUS       PTCLDY    41  30  65 SE3       29.82F
DAYTON         CLEAR     45  31  58 S10       29.80F
WILMINGTON     CLEAR     41  31  67 S10       29.83S
HUNTINGTON     PTCLDY    47  29  49 S5        29.90S
CHARLESTON     PTCLDY    40  31  70 SE3       29.92S
PINEVILLE*       N/A     32  29  88 MISG      30.01F
BECKLEY        PTCLDY    43  26  51 SW6       29.96S
BLUEFIELD      CLOUDY    44  26  49 W8        29.97F
LOGAN CO APT*    N/A     48  30  49 CALM      29.93F
$$

VAZ002-007-008-TNZ017-027-036-066-071-181300
...SOUTHWEST VIRGINIA/EAST TENNESSEE...

CITY           SKY/WX    TMP DP  RH WIND       PRES   REMARKS
WISE*          CLOUDY    46  28  49 CALM      29.96F
JONESVILLE*    PTSUNNY   34  32  93 CALM      29.98F
ABINGDON*      CLOUDY    40  30  67 CALM      29.98S
BRISTOL        CLOUDY    34  29  82 CALM      29.98F
MORRISTOWN*    MOSUNNY   45  34  65 CALM      29.96R
SEVIERVILLE*   SUNNY     37  32  81 CALM      29.97R
KNOXVILLE      CLOUDY    45  36  70 E3        29.95R
LAFOLLETTE*    PTSUNNY   41  36  81 CALM      29.99R
OAK RIDGE      CLOUDY    44  36  73 CALM      29.97S
CROSSVILLE     CLOUDY    50  32  50 VRB5      29.95S
NASHVILLE      CLOUDY    53  39  59 CALM      29.93S
$$

...KEY TO REMARKS...
VSB - VISIBILITY IN MILES
WCI - WIND CHILL INDEX
HX  - HEAT INDEX

$$




USA.gov is the U.S. government's official web portal to all federal, state and local government web resources and services.